Weather History for Lihue, HI

Change the Weather History Date:

Wednesday, January 30, 2013

  Actual Average Record
Temperature  
Mean Temperature 71 °F 72 °F  
Max Temperature 77 °F 78 °F 84 °F (1981)
Min Temperature 64 °F 65 °F 56 °F (1998)
Degree Days  
Heating Degree Days 0 0  
Month to date heating degree days 0 0  
Since 1 July heating degree days 0 0  
Cooling Degree Days 6 7  
Month to date cooling degree days 186 210  
Year to date cooling degree days 186 210  
Growing Degree Days 20 (Base 50)    
Moisture  
Dew Point 63 °F    
Average Humidity 81    
Maximum Humidity 93    
Minimum Humidity 69    
Precipitation  
Precipitation 0.01 in 0.12 in 2.78 in (1975)
Month to date precipitation 5.88 3.63  
Year to date precipitation 5.88 3.63  
Snow  
Snow 0.00 in - - ()
Month to date snowfall 0.0  
Since 1 July snowfall 0.0  
Snow Depth 0.00 in    
Sea Level Pressure  
Sea Level Pressure 30.06 in    
Wind  
Wind Speed 9 mph (North)    
Max Wind Speed 15 mph    
Max Gust Speed 18 mph    
Visibility 10 miles    
Events Rain    
T = Trace of Precipitation, MM = Missing Value Source: NWS Daily Summary

Daily Weather History Graph

Daily Weather History Graph

Search for Another Location

Airport:

Trip Planner

Search our weather history database for the weather conditions in past years. The results will help you decide how hot, cold, wet, or windy it might be!

Date:

Astronomy

Jan. 30, 2013 Rise Set
Actual Time 7:16 AM HST 6:25 PM HST
Civil Twilight 6:52 AM HST 6:48 PM HST
Nautical Twilight 6:25 AM HST 7:15 PM HST
Astronomical Twilight 5:59 AM HST 7:42 PM HST
Moon 9:58 PM HST (1/30) 9:24 AM HST (1/30)
Length of Visible Light 11h 56m
Length of Day
11h 09m
Waning Gibbous, 86% of the Moon is Illuminated
Jan 30
Waning Gibbous
Feb 3
Last Quarter
Feb 9
New
Feb 17
First Quarter
Feb 25
Full

Hourly Weather History & Observations

Time (HST) Temp. Dew Point Humidity Pressure Visibility Wind Dir Wind Speed Gust Speed Precip Events Conditions
12:02 AM 64.4 °F 60.8 °F 88% 30.05 in 10.0 mi WNW 4.6 mph - N/A   Mostly Cloudy
12:44 AM 66.2 °F 60.8 °F 83% 30.05 in 10.0 mi West 5.8 mph - N/A   Scattered Clouds
12:53 AM 65.5 °F 61.0 °F 85% 30.04 in 10.0 mi WNW 5.8 mph - N/A   Partly Cloudy
1:53 AM 64.0 °F 60.1 °F 87% 30.04 in 10.0 mi West 8.1 mph - N/A   Clear
2:53 AM 64.0 °F 60.1 °F 87% 30.04 in 10.0 mi WNW 5.8 mph - N/A   Partly Cloudy
3:53 AM 64.4 °F 60.1 °F 86% 30.03 in 10.0 mi NNW 5.8 mph - N/A   Scattered Clouds
4:53 AM 67.1 °F 62.1 °F 84% 30.03 in 10.0 mi West 4.6 mph - 0.01 in   Mostly Cloudy
5:49 AM 66.2 °F 62.6 °F 88% 30.03 in 10.0 mi WNW 4.6 mph - 0.00 in Rain Light Rain
5:53 AM 66.0 °F 62.1 °F 87% 30.03 in 10.0 mi WNW 5.8 mph - 0.00 in   Overcast
6:48 AM 66.2 °F 62.6 °F 88% 30.05 in 10.0 mi West 5.8 mph - N/A   Mostly Cloudy
6:53 AM 65.8 °F 62.1 °F 88% 30.04 in 10.0 mi West 5.8 mph - N/A   Mostly Cloudy
7:53 AM 64.4 °F 62.1 °F 92% 30.06 in 10.0 mi WNW 4.6 mph - N/A   Partly Cloudy
8:53 AM 64.4 °F 62.1 °F 92% 30.09 in 10.0 mi North 6.9 mph - N/A   Clear
9:53 AM 75.0 °F 66.9 °F 76% 30.10 in 10.0 mi NNE 8.1 mph - N/A   Scattered Clouds
10:53 AM 75.9 °F 66.0 °F 71% 30.10 in 10.0 mi NE 9.2 mph - N/A   Scattered Clouds
11:53 AM 75.9 °F 66.9 °F 74% 30.08 in 10.0 mi ENE 9.2 mph - N/A   Clear
12:53 PM 77.0 °F 66.9 °F 71% 30.06 in 10.0 mi NE 10.4 mph - N/A   Scattered Clouds
1:53 PM 75.9 °F 66.0 °F 71% 30.04 in 10.0 mi NE 9.2 mph - N/A   Clear
2:53 PM 75.9 °F 66.0 °F 71% 30.03 in 10.0 mi NE 12.7 mph - N/A   Clear
3:53 PM 75.0 °F 64.9 °F 71% 30.03 in 10.0 mi NE 15.0 mph - N/A   Clear
4:53 PM 75.0 °F 64.9 °F 71% 30.03 in 10.0 mi NNE 13.8 mph - N/A   Clear
5:53 PM 73.0 °F 64.0 °F 73% 30.04 in 10.0 mi NNE 12.7 mph - N/A   Clear
6:53 PM 71.1 °F 64.0 °F 78% 30.05 in 10.0 mi North 8.1 mph - N/A   Partly Cloudy
7:53 PM 70.0 °F 63.0 °F 78% 30.07 in 10.0 mi North 6.9 mph - N/A   Clear
8:53 PM 70.0 °F 64.0 °F 81% 30.09 in 10.0 mi North 5.8 mph - N/A   Partly Cloudy
9:53 PM 70.0 °F 64.0 °F 81% 30.09 in 10.0 mi North 8.1 mph - N/A   Scattered Clouds
10:14 PM 69.8 °F 64.4 °F 83% 30.10 in 10.0 mi North 5.8 mph - N/A   Mostly Cloudy
10:32 PM 71.6 °F 64.4 °F 78% 30.10 in 10.0 mi NE 12.7 mph - N/A   Scattered Clouds
10:53 PM 71.1 °F 64.0 °F 78% 30.10 in 10.0 mi NE 12.7 mph - N/A   Scattered Clouds
11:53 PM 71.1 °F 63.0 °F 75% 30.09 in 10.0 mi NE 12.7 mph - N/A   Partly Cloudy